Location: Epalinges
(46.5518°N, 6.6683°E)
Time: 17:21:03
(UTC+00:00)

ATLAS 5 CENTAUR R/B - Pass Details

Date: 20 June 2021
Orbit: 510 x 1148 km, 63.4° (Epoch: 28 July)

Event Time Altitude Azimuth Distance (km) Brightness Sun altitude
Exits shadow 02:29:23 10° 249° (WSW) 1,806 3.4 -9.7°
Reaches altitude 10° 02:29:24 10° 249° (WSW) 1,802 3.4 -9.7°
Maximum altitude 02:33:09 39° 319° (NW) 888 2.5 -9.3°
Drops below altitude 10° 02:37:26 10° 29° (NNE) 2,053 5.8 -8.8°
Sets 02:40:04 0° 37° (NE) 3,074 7.5 -8.5°
